Simultaneous Nadir Overpasses (SNOs) Predictions

Prediction of SNOs between LANDSAT-8 and NOAA-19 Satellite Orbit:

Table of predicted SNOs for the next 14.0 days since TLE Epoch: 7/20/2019
Index Date (LANDSAT-8) Time (LANDSAT-8) Lat,Lon (LANDSAT-8) SZA (LANDSAT-8 ) Date (NOAA-19) Time (NOAA-19) Lat,Lon (NOAA-19) SZA (NOAA-19 ) Distance(km) Time Diff (sec)
1 07/20/2019 07:13:57 78.90, 91.71 58.78 07/20/2019 07:13:52 78.90, 91.90 58.79 3.93 5
2 07/22/2019 12:47:41 -78.94,-171.48 120.74 07/22/2019 12:47:19 -78.94,-171.64 120.76 3.46 22
3 07/22/2019 13:37:08 78.90, -4.09 59.21 07/22/2019 13:38:17 78.90, -4.14 59.24 1.09 69
4 07/24/2019 18:21:25 78.93, -74.96 59.71 07/24/2019 18:20:42 78.93, -74.89 59.70 1.55 43
5 07/24/2019 19:10:53 -78.90, 92.49 120.33 07/24/2019 19:11:43 -78.92, 92.44 120.30 2.58 50
6 07/26/2019 23:55:10 -78.94, 21.63 119.81 07/26/2019 23:54:07 -78.94, 21.80 119.81 3.53 63
7 07/27/2019 00:44:36 78.93,-170.77 60.20 07/27/2019 00:45:06 78.91,-170.69 60.19 3.26 30
8 07/29/2019 06:18:20 -78.94, -74.16 119.29 07/29/2019 06:18:30 -78.93, -74.15 119.29 0.75 10
9 07/31/2019 11:52:03 78.96, 22.56 61.29 07/31/2019 11:51:55 78.95, 22.45 61.27 3.03 8
10 08/02/2019 17:25:48 -78.97, 119.19 118.14 08/02/2019 17:25:18 -78.95, 119.19 118.17 2.95 30




NCC Satellite Simultaneous Nadir Overpasses (SNOs) Prediction Service
